Location: Newark
(3.0500°N, 36.0167°E)
Time: 10:56:08
(UTC+00:00)

Transit 2A Rocket - Pass Details

Date: 26 August 2019
Orbit: 592 x 911 km, 66.7° (Epoch: 22 September)

Event Time Altitude Azimuth Distance (km) Brightness Sun altitude
Rises 02:24:58 0° 336° (NNW) 2,815 7.8 -17.3°
Reaches altitude 10° 02:27:11 10° 334° (NNW) 1,912 6.9 -16.8°
Maximum altitude 02:31:25 70° 251° (WSW) 634 4.4 -15.7°
Drops below altitude 10° 02:35:48 10° 166° (SSE) 1,971 7.2 -14.7°
Sets 02:38:07 0° 164° (SSE) 2,911 8.1 -14.1°
